Year,Month,Day,Hour,Minute,Value (Times are PST for temperature in C)
2011,10,15,00,00,4.80
2011,10,15,00,01,4.80
2011,10,15,00,02,4.80
2011,10,15,00,03,4.80
2011,10,15,00,04,4.80
2011,10,15,00,05,4.80
2011,10,15,00,06,4.80
2011,10,15,00,07,4.80
2011,10,15,00,08,4.80
2011,10,15,00,09,4.80
2011,10,15,00,10,4.80
2011,10,15,00,11,4.80
2011,10,15,00,12,4.80
2011,10,15,00,16,4.70
2011,10,15,00,17,4.70
2011,10,15,00,18,4.60
2011,10,15,00,19,4.60
2011,10,15,00,20,4.60
2011,10,15,00,21,4.60
2011,10,15,00,22,4.60
2011,10,15,00,23,4.60
2011,10,15,00,24,4.60
2011,10,15,00,25,4.60
2011,10,15,00,26,4.60
2011,10,15,00,27,4.60
2011,10,15,00,28,4.60
2011,10,15,00,29,4.60
2011,10,15,00,30,4.60
2011,10,15,00,31,4.60
2011,10,15,00,32,4.60
2011,10,15,00,33,4.60
2011,10,15,00,34,4.60
2011,10,15,00,35,4.60
2011,10,15,00,36,4.60
2011,10,15,00,37,4.60
2011,10,15,00,38,4.60
2011,10,15,00,39,4.60
2011,10,15,00,40,4.60
2011,10,15,00,41,4.60
2011,10,15,00,42,4.60
2011,10,15,00,43,4.60
2011,10,15,00,44,4.70
2011,10,15,00,45,4.70
2011,10,15,00,46,4.70
2011,10,15,00,47,4.80
2011,10,15,00,48,4.80
2011,10,15,00,49,4.80
2011,10,15,00,50,4.90
2011,10,15,00,51,4.90
2011,10,15,00,52,4.90
2011,10,15,00,53,4.90
2011,10,15,00,54,4.90
2011,10,15,00,55,4.90
2011,10,15,00,56,4.90
2011,10,15,00,57,4.90
2011,10,15,00,58,4.80
2011,10,15,00,59,4.80
2011,10,15,01,00,4.80
2011,10,15,01,01,4.70
2011,10,15,01,02,4.70
2011,10,15,01,03,4.70
2011,10,15,01,04,4.70
2011,10,15,01,05,4.60
2011,10,15,01,06,4.60
2011,10,15,01,07,4.60
2011,10,15,01,08,4.60
2011,10,15,01,09,4.60
2011,10,15,01,10,4.60
2011,10,15,01,11,4.60
2011,10,15,01,12,4.60
2011,10,15,01,13,4.60
2011,10,15,01,14,4.60
2011,10,15,01,15,4.60
2011,10,15,01,16,4.60
2011,10,15,01,17,4.50
2011,10,15,01,18,4.50
2011,10,15,01,19,4.50
2011,10,15,01,20,4.40
2011,10,15,01,21,4.40
2011,10,15,01,22,4.40
2011,10,15,01,23,4.30
2011,10,15,01,24,4.30
2011,10,15,01,25,4.30
2011,10,15,01,26,4.20
2011,10,15,01,27,4.20
2011,10,15,01,28,4.20
2011,10,15,01,29,4.20
2011,10,15,01,30,4.20
2011,10,15,01,31,4.20
2011,10,15,01,32,4.20
2011,10,15,01,33,4.10
2011,10,15,01,34,4.10
2011,10,15,01,35,4.10
2011,10,15,01,36,4.10
2011,10,15,01,37,4.00
2011,10,15,01,38,4.00
2011,10,15,01,39,4.00
2011,10,15,01,40,4.00
2011,10,15,01,41,4.00
2011,10,15,01,42,4.00
2011,10,15,01,43,3.90
2011,10,15,01,44,3.90
2011,10,15,01,45,3.90
2011,10,15,01,46,3.90
2011,10,15,01,47,3.90
2011,10,15,01,48,3.80
2011,10,15,01,49,3.80
2011,10,15,01,50,3.80
2011,10,15,01,51,3.80
2011,10,15,01,52,3.80
2011,10,15,01,53,3.80
2011,10,15,01,54,3.80
2011,10,15,01,55,3.80
2011,10,15,01,56,3.80
2011,10,15,01,57,3.80
2011,10,15,01,58,3.80
2011,10,15,01,59,3.80
2011,10,15,02,00,3.80
2011,10,15,02,01,3.80
2011,10,15,02,02,3.80
2011,10,15,02,03,3.80
2011,10,15,02,04,3.80
2011,10,15,02,05,3.80
2011,10,15,02,06,3.80
2011,10,15,02,07,3.80
2011,10,15,02,08,3.80
2011,10,15,02,09,3.80
2011,10,15,02,10,3.80
2011,10,15,02,11,3.80
2011,10,15,02,12,3.80
2011,10,15,02,13,3.90
2011,10,15,02,14,3.90
2011,10,15,02,15,3.90
2011,10,15,02,16,3.90
2011,10,15,02,17,3.90
2011,10,15,02,18,3.90
2011,10,15,02,19,3.90
2011,10,15,02,20,3.80
2011,10,15,02,21,3.80
2011,10,15,02,22,3.80
2011,10,15,02,23,3.80
2011,10,15,02,24,3.80
2011,10,15,02,25,3.70
2011,10,15,02,26,3.70
2011,10,15,02,27,3.80
2011,10,15,02,28,3.80
2011,10,15,02,29,3.80
2011,10,15,02,30,3.80
2011,10,15,02,31,3.80
2011,10,15,02,32,3.80
2011,10,15,02,33,3.80
2011,10,15,02,34,3.80
2011,10,15,02,35,3.80
2011,10,15,02,36,3.80
2011,10,15,02,37,3.80
2011,10,15,02,38,3.70
2011,10,15,02,39,3.70
2011,10,15,02,40,3.70
2011,10,15,02,41,3.70
2011,10,15,02,42,3.70
2011,10,15,02,43,3.70
2011,10,15,02,44,3.60
2011,10,15,02,45,3.60
2011,10,15,02,46,3.60
2011,10,15,02,47,3.60
2011,10,15,02,48,3.60
2011,10,15,02,49,3.50
2011,10,15,02,50,3.50
2011,10,15,02,51,3.50
2011,10,15,02,52,3.50
2011,10,15,02,53,3.50
2011,10,15,02,54,3.50
2011,10,15,02,55,3.50
2011,10,15,02,56,3.50
2011,10,15,02,57,3.60
2011,10,15,02,58,3.60
2011,10,15,02,59,3.60
2011,10,15,03,00,3.70
2011,10,15,03,01,3.70
2011,10,15,03,02,3.70
2011,10,15,03,03,3.70
2011,10,15,03,04,3.70
2011,10,15,03,05,3.70
2011,10,15,03,06,3.70
2011,10,15,03,07,3.60
2011,10,15,03,08,3.60
2011,10,15,03,09,3.60
2011,10,15,03,10,3.60
2011,10,15,03,11,3.60
2011,10,15,03,12,3.60
2011,10,15,03,13,3.60
2011,10,15,03,14,3.60
2011,10,15,03,15,3.60
2011,10,15,03,16,3.60
2011,10,15,03,17,3.60
2011,10,15,03,18,3.60
2011,10,15,03,19,3.60
2011,10,15,03,20,3.60
2011,10,15,03,21,3.60
2011,10,15,03,22,3.60
2011,10,15,03,23,3.60
2011,10,15,03,24,3.60
2011,10,15,03,25,3.60
2011,10,15,03,26,3.60
2011,10,15,03,27,3.60
2011,10,15,03,28,3.60
2011,10,15,03,29,3.70
2011,10,15,03,30,3.70
2011,10,15,03,31,3.70
2011,10,15,03,32,3.70
2011,10,15,03,33,3.80
2011,10,15,03,34,3.80
2011,10,15,03,35,3.80
2011,10,15,03,36,3.80
2011,10,15,03,37,3.80
2011,10,15,03,38,3.80
2011,10,15,03,39,3.80
2011,10,15,03,40,3.80
2011,10,15,03,41,3.80
2011,10,15,03,42,3.80
2011,10,15,03,43,3.80
2011,10,15,03,44,3.80
2011,10,15,03,45,3.80
2011,10,15,03,46,3.80
2011,10,15,03,47,3.80
2011,10,15,03,48,3.80
2011,10,15,03,49,3.80
2011,10,15,03,50,3.80
2011,10,15,03,51,3.80
2011,10,15,03,52,3.80
2011,10,15,03,53,3.70
2011,10,15,03,54,3.70
2011,10,15,03,55,3.70
2011,10,15,03,56,3.70
2011,10,15,03,57,3.70
2011,10,15,03,58,3.70
2011,10,15,03,59,3.70
2011,10,15,04,00,3.70
2011,10,15,04,01,3.70
2011,10,15,04,02,3.70
2011,10,15,04,03,3.70
2011,10,15,04,04,3.70
2011,10,15,04,05,3.70
2011,10,15,04,06,3.70
2011,10,15,04,07,3.70
2011,10,15,04,08,3.70
2011,10,15,04,09,3.60
2011,10,15,04,10,3.60
2011,10,15,04,11,3.60
2011,10,15,04,12,3.60
2011,10,15,04,13,3.60
2011,10,15,04,14,3.60
2011,10,15,04,15,3.60
2011,10,15,04,16,3.70
2011,10,15,04,17,3.70
2011,10,15,04,18,3.70
2011,10,15,04,19,3.80
2011,10,15,04,20,3.80
2011,10,15,04,21,3.80
2011,10,15,04,22,3.80
2011,10,15,04,23,3.80
2011,10,15,04,24,3.80
2011,10,15,04,25,3.80
2011,10,15,04,26,3.80
2011,10,15,04,27,3.80
2011,10,15,04,28,3.80
2011,10,15,04,29,3.80
2011,10,15,04,30,3.80
2011,10,15,04,31,3.80
2011,10,15,04,32,3.80
2011,10,15,04,33,3.80
2011,10,15,04,34,3.80
2011,10,15,04,35,3.80
2011,10,15,04,36,3.90
2011,10,15,04,37,3.90
2011,10,15,04,38,3.90
2011,10,15,04,39,3.80
2011,10,15,04,40,3.80
2011,10,15,04,41,3.80
2011,10,15,04,42,3.90
2011,10,15,04,43,3.90
2011,10,15,04,44,3.90
2011,10,15,04,45,3.90
2011,10,15,04,46,3.90
2011,10,15,04,47,3.90
2011,10,15,04,48,3.90
2011,10,15,04,49,3.80
2011,10,15,04,50,3.80
2011,10,15,04,51,3.80
2011,10,15,04,52,3.80
2011,10,15,04,53,3.80
2011,10,15,04,54,3.80
2011,10,15,04,55,3.80
2011,10,15,04,56,3.80
2011,10,15,04,57,3.80
2011,10,15,04,58,3.80
2011,10,15,04,59,3.80
2011,10,15,05,00,3.80
2011,10,15,05,01,3.80
2011,10,15,05,02,3.80
2011,10,15,05,03,3.80
2011,10,15,05,04,3.80
2011,10,15,05,05,3.80
2011,10,15,05,06,3.80
2011,10,15,05,07,3.70
2011,10,15,05,08,3.70
2011,10,15,05,09,3.70
2011,10,15,05,10,3.70
2011,10,15,05,11,3.70
2011,10,15,05,12,3.60
2011,10,15,05,13,3.60
2011,10,15,05,14,3.60
2011,10,15,05,15,3.60
2011,10,15,05,16,3.60
2011,10,15,05,17,3.60
2011,10,15,05,18,3.60
2011,10,15,05,19,3.60
2011,10,15,05,20,3.60
2011,10,15,05,21,3.60
2011,10,15,05,22,3.60
2011,10,15,05,23,3.60
2011,10,15,05,24,3.60
2011,10,15,05,25,3.60
2011,10,15,05,26,3.60
2011,10,15,05,27,3.60
2011,10,15,05,28,3.60
2011,10,15,05,29,3.60
2011,10,15,05,30,3.60
2011,10,15,05,31,3.60
2011,10,15,05,32,3.50
2011,10,15,05,33,3.50
2011,10,15,05,34,3.50
2011,10,15,05,35,3.50
2011,10,15,05,36,3.50
2011,10,15,05,37,3.40
2011,10,15,05,38,3.40
2011,10,15,05,39,3.40
2011,10,15,05,40,3.40
2011,10,15,05,41,3.30
2011,10,15,05,42,3.30
2011,10,15,05,43,3.30
2011,10,15,05,44,3.30
2011,10,15,05,45,3.30
2011,10,15,05,46,3.30
2011,10,15,05,47,3.30
2011,10,15,05,48,3.30
2011,10,15,05,49,3.30
2011,10,15,05,50,3.30
2011,10,15,05,51,3.30
2011,10,15,05,52,3.30
2011,10,15,05,53,3.30
2011,10,15,05,54,3.30
2011,10,15,05,55,3.30
2011,10,15,05,56,3.30
2011,10,15,05,57,3.30
2011,10,15,05,58,3.30
2011,10,15,05,59,3.30
2011,10,15,06,00,3.40
2011,10,15,06,01,3.40
2011,10,15,06,02,3.40
2011,10,15,06,03,3.40
2011,10,15,06,04,3.40
2011,10,15,06,05,3.40
2011,10,15,06,06,3.40
2011,10,15,06,07,3.40
2011,10,15,06,08,3.40
2011,10,15,06,09,3.40
2011,10,15,06,10,3.30
2011,10,15,06,11,3.30
2011,10,15,06,12,3.30
2011,10,15,06,13,3.30
2011,10,15,06,14,3.30
2011,10,15,06,15,3.30
2011,10,15,06,16,3.30
2011,10,15,06,17,3.30
2011,10,15,06,18,3.30
2011,10,15,06,19,3.30
2011,10,15,06,20,3.30
2011,10,15,06,21,3.30
2011,10,15,06,22,3.30
2011,10,15,06,23,3.30
2011,10,15,06,24,3.30
2011,10,15,06,25,3.30
2011,10,15,06,26,3.30
2011,10,15,06,27,3.30
2011,10,15,06,28,3.30
2011,10,15,06,29,3.30
2011,10,15,06,30,3.40
2011,10,15,06,31,3.40
2011,10,15,06,32,3.40
2011,10,15,06,33,3.40
2011,10,15,06,34,3.40
2011,10,15,06,35,3.40
2011,10,15,06,36,3.40
2011,10,15,06,37,3.30
2011,10,15,06,38,3.30
2011,10,15,06,39,3.30
2011,10,15,06,40,3.30
2011,10,15,06,41,3.30
2011,10,15,06,42,3.20
2011,10,15,06,43,3.20
2011,10,15,06,44,3.20
2011,10,15,06,45,3.20
2011,10,15,06,46,3.20
2011,10,15,06,47,3.20
2011,10,15,06,48,3.20
2011,10,15,06,49,3.20
2011,10,15,06,50,3.30
2011,10,15,06,51,3.30
2011,10,15,06,52,3.30
2011,10,15,06,53,3.30
2011,10,15,06,54,3.20
2011,10,15,06,55,3.20
2011,10,15,06,56,3.20
2011,10,15,06,57,3.20
2011,10,15,06,58,3.20
2011,10,15,06,59,3.20
2011,10,15,07,00,3.20
2011,10,15,07,01,3.10
2011,10,15,07,02,3.10
2011,10,15,07,03,3.10
2011,10,15,07,04,3.10
2011,10,15,07,05,3.10
2011,10,15,07,06,3.10
2011,10,15,07,07,3.10
2011,10,15,07,08,3.10
2011,10,15,07,09,3.10
2011,10,15,07,10,3.10
2011,10,15,07,11,3.10
2011,10,15,07,12,3.10
2011,10,15,07,13,3.00
2011,10,15,07,14,2.90
2011,10,15,07,15,2.90
2011,10,15,07,16,2.90
2011,10,15,07,17,2.90
2011,10,15,07,18,2.90
2011,10,15,07,19,2.90
2011,10,15,07,20,2.90
2011,10,15,07,21,2.90
2011,10,15,07,22,2.90
2011,10,15,07,23,2.90
2011,10,15,07,24,2.90
2011,10,15,07,25,2.90
2011,10,15,07,26,2.90
2011,10,15,07,27,2.90
2011,10,15,07,28,2.90
2011,10,15,07,29,2.90
2011,10,15,07,30,2.90
2011,10,15,07,31,2.90
2011,10,15,07,32,2.90
2011,10,15,07,33,2.90
2011,10,15,07,34,2.90
2011,10,15,07,35,3.00
2011,10,15,07,36,3.10
2011,10,15,07,37,3.10
2011,10,15,07,38,3.10
2011,10,15,07,39,3.10
2011,10,15,07,40,3.10
2011,10,15,07,41,3.10
2011,10,15,07,42,3.00
2011,10,15,07,43,2.90
2011,10,15,07,44,2.90
2011,10,15,07,45,2.90
2011,10,15,07,46,2.90
2011,10,15,07,47,2.90
2011,10,15,07,48,2.90
2011,10,15,07,49,2.90
2011,10,15,07,50,2.90
2011,10,15,07,51,2.90
2011,10,15,07,52,2.90
2011,10,15,07,53,2.90
2011,10,15,07,54,3.00
2011,10,15,07,55,3.10
2011,10,15,07,56,3.10
2011,10,15,07,57,3.10
2011,10,15,07,58,3.20
2011,10,15,07,59,3.20
2011,10,15,08,00,3.20
2011,10,15,08,01,3.30
2011,10,15,08,02,3.30
2011,10,15,08,03,3.30
2011,10,15,08,04,3.30
2011,10,15,08,05,3.30
2011,10,15,08,06,3.40
2011,10,15,08,07,3.40
2011,10,15,08,08,3.40
2011,10,15,08,09,3.40
2011,10,15,08,10,3.50
2011,10,15,08,11,3.50
2011,10,15,08,12,3.50
2011,10,15,08,13,3.50
2011,10,15,08,14,3.50
2011,10,15,08,15,3.50
2011,10,15,08,16,3.50
2011,10,15,08,17,3.50
2011,10,15,08,18,3.50
2011,10,15,08,19,3.60
2011,10,15,08,20,3.60
2011,10,15,08,21,3.70
2011,10,15,08,22,3.70
2011,10,15,08,23,3.80
2011,10,15,08,24,3.80
2011,10,15,08,25,3.80
2011,10,15,08,26,3.90
2011,10,15,08,27,3.90
2011,10,15,08,28,3.90
2011,10,15,08,29,3.90
2011,10,15,08,30,3.90
2011,10,15,08,31,4.00
2011,10,15,08,32,4.00
2011,10,15,08,33,4.10
2011,10,15,08,34,4.10
2011,10,15,08,35,4.20
2011,10,15,08,36,4.20
2011,10,15,08,37,4.20
2011,10,15,08,38,4.20
2011,10,15,08,39,4.20
2011,10,15,08,40,4.30
2011,10,15,08,41,4.30
2011,10,15,08,42,4.40
2011,10,15,08,43,4.40
2011,10,15,08,44,4.50
2011,10,15,08,45,4.50
2011,10,15,08,46,4.50
2011,10,15,08,47,4.60
2011,10,15,08,48,4.60
2011,10,15,08,49,4.60
2011,10,15,08,50,4.70
2011,10,15,08,51,4.70
2011,10,15,08,52,4.70
2011,10,15,08,53,4.70
2011,10,15,08,54,4.70
2011,10,15,08,55,4.70
2011,10,15,08,56,4.80
2011,10,15,08,57,4.80
2011,10,15,08,58,4.80
2011,10,15,08,59,4.90
2011,10,15,09,00,4.90
2011,10,15,09,01,4.90
2011,10,15,09,02,5.00
2011,10,15,09,03,5.10
2011,10,15,09,04,5.10
2011,10,15,09,05,5.10
2011,10,15,09,06,5.20
2011,10,15,09,07,5.20
2011,10,15,09,08,5.30
2011,10,15,09,09,5.30
2011,10,15,09,10,5.40
2011,10,15,09,11,5.40
2011,10,15,09,12,5.50
2011,10,15,09,13,5.50
2011,10,15,09,14,5.60
2011,10,15,09,15,5.70
2011,10,15,09,16,5.70
2011,10,15,09,17,5.70
2011,10,15,09,18,5.70
2011,10,15,09,19,5.80
2011,10,15,09,20,5.90
2011,10,15,09,21,5.90
2011,10,15,09,22,6.00
2011,10,15,09,23,6.00
2011,10,15,09,24,6.10
2011,10,15,09,25,6.10
2011,10,15,09,26,6.20
2011,10,15,09,27,6.20
2011,10,15,09,28,6.20
2011,10,15,09,29,6.30
2011,10,15,09,30,6.30
2011,10,15,09,31,6.40
2011,10,15,09,32,6.40
2011,10,15,09,33,6.50
2011,10,15,09,34,6.60
2011,10,15,09,35,6.60
2011,10,15,09,36,6.70
2011,10,15,09,37,6.80
2011,10,15,09,38,6.80
2011,10,15,09,39,6.90
2011,10,15,09,40,6.90
2011,10,15,09,41,7.00
2011,10,15,09,42,7.10
2011,10,15,09,43,7.20
2011,10,15,09,44,7.30
2011,10,15,09,45,7.30
2011,10,15,09,46,7.30
2011,10,15,09,47,7.30
2011,10,15,09,48,7.30
2011,10,15,09,49,7.40
2011,10,15,09,50,7.40
2011,10,15,09,51,7.50
2011,10,15,09,52,7.50
2011,10,15,09,53,7.50
2011,10,15,09,54,7.50
2011,10,15,09,55,7.60
2011,10,15,09,56,7.60
2011,10,15,09,57,7.60
2011,10,15,09,58,7.70
2011,10,15,09,59,7.80
2011,10,15,10,00,8.00
2011,10,15,10,01,8.10
2011,10,15,10,02,8.20
2011,10,15,10,03,8.30
2011,10,15,10,04,8.40
2011,10,15,10,05,8.50
2011,10,15,10,06,8.50
2011,10,15,10,07,8.50
2011,10,15,10,08,8.50
2011,10,15,10,09,8.50
2011,10,15,10,10,8.40
2011,10,15,10,11,8.50
2011,10,15,10,12,8.50
2011,10,15,10,13,8.50
2011,10,15,10,14,8.50
2011,10,15,10,15,8.50
2011,10,15,10,16,8.60
2011,10,15,10,17,8.60
2011,10,15,10,18,8.70
2011,10,15,10,19,8.70
2011,10,15,10,20,8.70
2011,10,15,10,21,8.70
2011,10,15,10,22,8.80
2011,10,15,10,23,8.70
2011,10,15,10,24,8.70
2011,10,15,10,25,8.70
2011,10,15,10,26,8.70
2011,10,15,10,27,8.70
2011,10,15,10,28,8.80
2011,10,15,10,29,8.90
2011,10,15,10,30,9.00
2011,10,15,10,31,9.00
2011,10,15,10,32,9.10
2011,10,15,10,33,9.20
2011,10,15,10,34,9.20
2011,10,15,10,35,9.20
2011,10,15,10,36,9.20
2011,10,15,10,37,9.20
2011,10,15,10,38,9.20
2011,10,15,10,39,9.10
2011,10,15,10,40,9.10
2011,10,15,10,41,9.00
2011,10,15,10,42,9.00
2011,10,15,10,43,9.10
2011,10,15,10,44,9.20
2011,10,15,10,45,9.20
2011,10,15,10,46,9.30
2011,10,15,10,47,9.20
2011,10,15,10,48,9.20
2011,10,15,10,49,9.20
2011,10,15,10,50,9.20
2011,10,15,10,51,9.20
2011,10,15,10,52,9.20
2011,10,15,10,53,9.20
2011,10,15,10,54,9.30
2011,10,15,10,55,9.30
2011,10,15,10,56,9.30
2011,10,15,10,57,9.30
2011,10,15,10,58,9.30
2011,10,15,10,59,9.30
2011,10,15,11,00,9.30
2011,10,15,11,01,9.20
2011,10,15,11,02,9.30
2011,10,15,11,03,9.40
2011,10,15,11,04,9.50
2011,10,15,11,05,9.50
2011,10,15,11,06,9.70
2011,10,15,11,07,9.80
2011,10,15,11,08,9.90
2011,10,15,11,09,9.90
2011,10,15,11,10,9.90
2011,10,15,11,11,10.10
2011,10,15,11,12,10.10
2011,10,15,11,13,10.10
2011,10,15,11,14,10.10
2011,10,15,11,15,10.10
2011,10,15,11,16,10.10
2011,10,15,11,17,10.10
2011,10,15,11,18,10.10
2011,10,15,11,19,10.20
2011,10,15,11,20,10.30
2011,10,15,11,21,10.30
2011,10,15,11,22,10.40
2011,10,15,11,23,10.40
2011,10,15,11,24,10.40
2011,10,15,11,25,10.40
2011,10,15,11,26,10.40
2011,10,15,11,27,10.40
2011,10,15,11,28,10.50
2011,10,15,11,29,10.60
2011,10,15,11,30,10.60
2011,10,15,11,31,10.50
2011,10,15,11,32,10.50
2011,10,15,11,33,10.60
2011,10,15,11,34,10.70
2011,10,15,11,35,10.80
2011,10,15,11,36,10.80
2011,10,15,11,37,10.90
2011,10,15,11,38,10.90
2011,10,15,11,39,10.90
2011,10,15,11,40,10.90
2011,10,15,11,41,10.90
2011,10,15,11,42,10.80
2011,10,15,11,43,10.80
2011,10,15,11,44,10.80
2011,10,15,11,45,10.90
2011,10,15,11,46,11.00
2011,10,15,11,47,11.10
2011,10,15,11,48,11.10
2011,10,15,11,49,11.20
2011,10,15,11,50,11.20
2011,10,15,11,51,11.20
2011,10,15,11,52,11.40
2011,10,15,11,53,11.40
2011,10,15,11,54,11.40
2011,10,15,11,55,11.40
2011,10,15,11,56,11.40
2011,10,15,11,57,11.50
2011,10,15,11,58,11.60
2011,10,15,11,59,11.60
2011,10,15,12,00,11.50
2011,10,15,12,01,11.60
2011,10,15,12,02,11.60
2011,10,15,12,03,11.60
2011,10,15,12,04,11.60
2011,10,15,12,05,11.60
2011,10,15,12,06,11.60
2011,10,15,12,07,11.60
2011,10,15,12,08,11.60
2011,10,15,12,09,11.70
2011,10,15,12,10,11.70
2011,10,15,12,11,11.70
2011,10,15,12,12,11.70
2011,10,15,12,13,11.70
2011,10,15,12,14,11.70
2011,10,15,12,15,11.80
2011,10,15,12,16,11.80
2011,10,15,12,17,11.80
2011,10,15,12,18,11.80
2011,10,15,12,19,11.70
2011,10,15,12,20,11.60
2011,10,15,12,21,11.70
2011,10,15,12,22,11.70
2011,10,15,12,23,11.80
2011,10,15,12,24,11.90
2011,10,15,12,25,11.90
2011,10,15,12,26,11.80
2011,10,15,12,27,11.80
2011,10,15,12,28,11.80
2011,10,15,12,29,11.80
2011,10,15,12,30,11.80
2011,10,15,12,31,11.90
2011,10,15,12,32,12.00
2011,10,15,12,33,12.00
2011,10,15,12,34,12.00
2011,10,15,12,35,12.10
2011,10,15,12,36,12.00
2011,10,15,12,37,12.00
2011,10,15,12,38,12.10
2011,10,15,12,39,12.10
2011,10,15,12,40,12.20
2011,10,15,12,41,12.30
2011,10,15,12,42,12.30
2011,10,15,12,43,12.30
2011,10,15,12,44,12.30
2011,10,15,12,45,12.50
2011,10,15,12,46,12.50
2011,10,15,12,47,12.50
2011,10,15,12,48,12.50
2011,10,15,12,49,12.60
2011,10,15,12,50,12.60
2011,10,15,12,51,12.60
2011,10,15,12,52,12.50
2011,10,15,12,53,12.40
2011,10,15,12,54,12.30
2011,10,15,12,55,12.30
2011,10,15,12,56,12.40
2011,10,15,12,57,12.40
2011,10,15,12,58,12.30
2011,10,15,12,59,12.30
2011,10,15,13,00,12.30
2011,10,15,13,01,12.30
2011,10,15,13,02,12.40
2011,10,15,13,03,12.50
2011,10,15,13,04,12.50
2011,10,15,13,05,12.40
2011,10,15,13,06,12.30
2011,10,15,13,07,12.30
2011,10,15,13,08,12.30
2011,10,15,13,09,12.30
2011,10,15,13,10,12.30
2011,10,15,13,11,12.40
2011,10,15,13,12,12.40
2011,10,15,13,13,12.50
2011,10,15,13,14,12.60
2011,10,15,13,15,12.60
2011,10,15,13,16,12.60
2011,10,15,13,17,12.60
2011,10,15,13,18,12.70
2011,10,15,13,19,12.60
2011,10,15,13,20,12.50
2011,10,15,13,21,12.50
2011,10,15,13,22,12.60
2011,10,15,13,23,12.60
2011,10,15,13,24,12.60
2011,10,15,13,25,12.70
2011,10,15,13,26,12.80
2011,10,15,13,27,12.90
2011,10,15,13,28,13.00
2011,10,15,13,29,12.80
2011,10,15,13,30,12.70
2011,10,15,13,31,12.70
2011,10,15,13,32,12.70
2011,10,15,13,33,12.80
2011,10,15,13,34,12.80
2011,10,15,13,35,12.80
2011,10,15,13,36,12.80
2011,10,15,13,37,12.70
2011,10,15,13,38,12.60
2011,10,15,13,39,12.50
2011,10,15,13,40,12.50
2011,10,15,13,41,12.50
2011,10,15,13,42,12.60
2011,10,15,13,43,12.70
2011,10,15,13,44,12.80
2011,10,15,13,45,12.80
2011,10,15,13,46,12.80
2011,10,15,13,47,12.80
2011,10,15,13,48,12.80
2011,10,15,13,49,12.80
2011,10,15,13,50,12.80
2011,10,15,13,51,12.80
2011,10,15,13,52,12.80
2011,10,15,13,53,12.80
2011,10,15,13,54,12.80
2011,10,15,13,55,12.90
2011,10,15,13,56,13.00
2011,10,15,13,57,13.00
2011,10,15,13,58,13.00
2011,10,15,13,59,13.00
2011,10,15,14,00,12.80
2011,10,15,14,01,12.80
2011,10,15,14,02,12.90
2011,10,15,14,03,12.90
2011,10,15,14,04,12.90
2011,10,15,14,05,12.90
2011,10,15,14,06,12.80
2011,10,15,14,07,12.80
2011,10,15,14,08,12.80
2011,10,15,14,09,12.80
2011,10,15,14,10,12.80
2011,10,15,14,11,12.80
2011,10,15,14,12,12.70
2011,10,15,14,13,12.80
2011,10,15,14,14,12.80
2011,10,15,14,15,12.80
2011,10,15,14,16,12.90
2011,10,15,14,17,12.90
2011,10,15,14,18,12.90
2011,10,15,14,19,13.00
2011,10,15,14,20,13.00
2011,10,15,14,21,13.10
2011,10,15,14,22,13.20
2011,10,15,14,23,13.30
2011,10,15,14,24,13.40
2011,10,15,14,25,13.50
2011,10,15,14,26,13.60
2011,10,15,14,27,13.70
2011,10,15,14,28,13.80
2011,10,15,14,29,13.90
2011,10,15,14,30,13.80
2011,10,15,14,31,13.50
2011,10,15,14,32,13.30
2011,10,15,14,33,13.10
2011,10,15,14,34,13.00
2011,10,15,14,35,13.00
2011,10,15,14,36,13.00
2011,10,15,14,37,13.00
2011,10,15,14,38,12.90
2011,10,15,14,39,12.90
2011,10,15,14,40,13.00
2011,10,15,14,41,13.10
2011,10,15,14,42,13.20
2011,10,15,14,43,13.30
2011,10,15,14,44,13.10
2011,10,15,14,45,12.90
2011,10,15,14,46,12.60
2011,10,15,14,47,12.50
2011,10,15,14,48,12.40
2011,10,15,14,49,12.30
2011,10,15,14,50,12.30
2011,10,15,14,51,12.30
2011,10,15,14,52,12.30
2011,10,15,14,53,12.30
2011,10,15,14,54,12.30
2011,10,15,14,55,12.20
2011,10,15,14,56,12.10
2011,10,15,14,57,12.10
2011,10,15,14,58,12.20
2011,10,15,14,59,12.20
2011,10,15,15,00,12.30
2011,10,15,15,01,12.30
2011,10,15,15,02,12.40
2011,10,15,15,03,12.40
2011,10,15,15,04,12.40
2011,10,15,15,05,12.50
2011,10,15,15,06,12.50
2011,10,15,15,07,12.50
2011,10,15,15,08,12.60
2011,10,15,15,09,12.60
2011,10,15,15,10,12.60
2011,10,15,15,11,12.60
2011,10,15,15,12,12.60
2011,10,15,15,13,12.60
2011,10,15,15,14,12.60
2011,10,15,15,15,12.70
2011,10,15,15,16,12.70
2011,10,15,15,17,12.70
2011,10,15,15,18,12.80
2011,10,15,15,19,12.80
2011,10,15,15,20,12.90
2011,10,15,15,21,13.00
2011,10,15,15,22,13.00
2011,10,15,15,23,12.90
2011,10,15,15,24,12.90
2011,10,15,15,25,12.90
2011,10,15,15,26,13.00
2011,10,15,15,27,13.10
2011,10,15,15,28,13.10
2011,10,15,15,29,13.10
2011,10,15,15,30,13.10
2011,10,15,15,31,13.10
2011,10,15,15,32,13.10
2011,10,15,15,33,13.00
2011,10,15,15,34,13.00
2011,10,15,15,35,13.00
2011,10,15,15,36,12.90
2011,10,15,15,37,12.90
2011,10,15,15,38,12.90
2011,10,15,15,39,12.80
2011,10,15,15,40,12.80
2011,10,15,15,41,12.80
2011,10,15,15,42,12.80
2011,10,15,15,43,12.90
2011,10,15,15,44,12.90
2011,10,15,15,45,13.00
2011,10,15,15,46,13.00
2011,10,15,15,47,13.10
2011,10,15,15,48,13.10
2011,10,15,15,49,13.20
2011,10,15,15,50,13.20
2011,10,15,15,51,13.20
2011,10,15,15,52,13.20
2011,10,15,15,53,13.20
2011,10,15,15,54,13.20
2011,10,15,15,55,13.20
2011,10,15,15,56,13.20
2011,10,15,15,57,13.20
2011,10,15,15,58,13.20
2011,10,15,15,59,13.20
2011,10,15,16,00,13.30
2011,10,15,16,01,13.30
2011,10,15,16,02,13.30
2011,10,15,16,03,13.30
2011,10,15,16,04,13.30
2011,10,15,16,05,13.30
2011,10,15,16,06,13.30
2011,10,15,16,07,13.30
2011,10,15,16,08,13.30
2011,10,15,16,09,13.30
2011,10,15,16,10,13.30
2011,10,15,16,11,13.30
2011,10,15,16,12,13.30
2011,10,15,16,13,13.20
2011,10,15,16,14,13.20
2011,10,15,16,15,13.30
2011,10,15,16,16,13.20
2011,10,15,16,17,13.10
2011,10,15,16,18,13.00
2011,10,15,16,19,12.90
2011,10,15,16,20,12.80
2011,10,15,16,21,12.80
2011,10,15,16,22,12.80
2011,10,15,16,23,12.80
2011,10,15,16,24,12.80
2011,10,15,16,25,12.80
2011,10,15,16,26,12.90
2011,10,15,16,27,12.90
2011,10,15,16,28,12.90
2011,10,15,16,29,12.90
2011,10,15,16,30,12.90
2011,10,15,16,31,12.80
2011,10,15,16,32,12.80
2011,10,15,16,33,12.70
2011,10,15,16,34,12.70
2011,10,15,16,35,12.60
2011,10,15,16,36,12.60
2011,10,15,16,37,12.60
2011,10,15,16,38,12.60
2011,10,15,16,39,12.50
2011,10,15,16,40,12.50
2011,10,15,16,41,12.50
2011,10,15,16,42,12.60
2011,10,15,16,43,12.70
2011,10,15,16,44,12.80
2011,10,15,16,45,12.80
2011,10,15,16,46,12.80
2011,10,15,16,47,12.80
2011,10,15,16,48,12.80
2011,10,15,16,49,12.80
2011,10,15,16,50,12.70
2011,10,15,16,51,12.60
2011,10,15,16,52,12.60
2011,10,15,16,53,12.60
2011,10,15,16,54,12.50
2011,10,15,16,55,12.50
2011,10,15,16,56,12.40
2011,10,15,16,57,12.40
2011,10,15,16,58,12.30
2011,10,15,16,59,12.20
2011,10,15,17,00,12.20
2011,10,15,17,01,12.10
2011,10,15,17,02,12.10
2011,10,15,17,03,12.00
2011,10,15,17,04,11.90
2011,10,15,17,05,11.80
2011,10,15,17,06,11.80
2011,10,15,17,07,11.80
2011,10,15,17,08,11.80
2011,10,15,17,09,11.80
2011,10,15,17,10,11.80
2011,10,15,17,11,11.80
2011,10,15,17,12,11.80
2011,10,15,17,13,11.80
2011,10,15,17,14,11.80
2011,10,15,17,15,11.80
2011,10,15,17,16,11.80
2011,10,15,17,17,11.90
2011,10,15,17,18,11.90
2011,10,15,17,19,11.90
2011,10,15,17,20,11.90
2011,10,15,17,21,11.90
2011,10,15,17,22,11.90
2011,10,15,17,23,11.80
2011,10,15,17,24,11.80
2011,10,15,17,25,11.80
2011,10,15,17,26,11.70
2011,10,15,17,27,11.70
2011,10,15,17,28,11.70
2011,10,15,17,29,11.70
2011,10,15,17,30,11.70
2011,10,15,17,31,11.70
2011,10,15,17,32,11.60
2011,10,15,17,33,11.60
2011,10,15,17,34,11.60
2011,10,15,17,35,11.60
2011,10,15,17,36,11.60
2011,10,15,17,37,11.60
2011,10,15,17,38,11.50
2011,10,15,17,39,11.40
2011,10,15,17,40,11.40
2011,10,15,17,41,11.40
2011,10,15,17,42,11.30
2011,10,15,17,43,11.30
2011,10,15,17,44,11.40
2011,10,15,17,45,11.30
2011,10,15,17,46,11.30
2011,10,15,17,47,11.30
2011,10,15,17,48,11.30
2011,10,15,17,49,11.30
2011,10,15,17,50,11.20
2011,10,15,17,51,11.10